{"data":{"norad_id":50809,"epoch":"2026-05-25T01:15:52.371072Z","epoch_age_seconds":70742,"freshness":"FRESH","line1":"1 50809U 22001G   26145.05268948 -.00000431  00000+0 -89814-5 0  9991","line2":"2 50809  53.2125 176.3140 0001037  92.7823 267.3288 15.08838112242074","mean_motion":15.08838112,"eccentricity":0.0001037,"inclination_deg":53.2125,"raan_deg":176.314,"arg_perigee_deg":92.7823,"mean_anomaly_deg":267.3288,"bstar":-8.9814e-6,"rev_number":24207,"period_min":95.4376740982,"perigee_km":539.03177503604,"apogee_km":540.46654462559,"semimajor_km":6917.8861598308,"source":"CELESTRAK","updated_at":"2026-05-25T13:38:16.875282Z"}}